Location: Arcueil
(48.7999°N, 2.3326°E)
Time: 06:02:48
(UTC+00:00)

ZACube-1 - Visible Passes

Search period start: 22 June 2024 00:00
Search period end: 02 July 2024 00:00
Orbit: 564 x 636 km, 97.7° (Epoch: 21 June)

Date Brightness Start Highest point End Pass type
(mag) Time Alt. Az. Time Alt. Az. Time Alt. Az.
22 Jun ? 02:43:08 10° NNE 02:47:10 61° ESE 02:51:09 10° S visible
23 Jun ? 02:54:13 10° NNE 02:58:18 81° ESE 03:02:19 10° SSW visible
24 Jun ? 01:31:57 10° ENE 01:33:06 11° E 01:34:15 10° ESE visible
24 Jun ? 03:05:20 10° N 03:09:23 77° WNW 03:13:24 10° SSW visible
25 Jun ? 01:42:06 10° NE 01:44:20 14° E 01:46:34 10° ESE visible
26 Jun ? 01:52:40 10° NE 01:55:32 18° E 01:58:23 10° SE visible
27 Jun ? 02:03:25 10° NE 02:06:42 24° E 02:09:58 10° SSE visible
28 Jun ? 02:14:16 10° NNE 02:17:52 30° E 02:21:25 10° SSE visible
29 Jun ? 02:25:09 10° NNE 02:28:58 39° E 02:32:46 10° SSE visible
30 Jun ? 02:36:07 10° NNE 02:40:04 51° E 02:44:00 10° S visible
01 Jul ? 02:47:05 10° NNE 02:51:08 68° ESE 02:55:09 10° S visible
